Hourly Weather Barkweda

Today, 6 May, Thursday

Time Temperature Precipitation Wind Pressure Humidity
00:00 +3°C° 0 mm 6 mps 742 mmHg 85%
01:00 +3°C° 0 mm 7 mps 742 mmHg 84%
02:00 +3°C° 0 mm 7 mps 742 mmHg 84%
03:00 +3°C° 0 mm 7 mps 742 mmHg 83%
04:00 +2°C° 0 mm 8 mps 742 mmHg 83%
05:00 +2°C° 0 mm 8 mps 742 mmHg 80%
06:00 +2°C° 0 mm 8 mps 743 mmHg 77%
07:00 +4°C° 0 mm 8 mps 743 mmHg 73%
08:00 +4°C° 0 mm 8 mps 744 mmHg 70%
09:00 +5°C° 0 mm 8 mps 744 mmHg 66%
10:00 +5°C° 0 mm 8 mps 744 mmHg 62%
11:00 +7°C° 0.1 mm 8 mps 744 mmHg 57%
12:00 +9°C° 0.1 mm 8 mps 745 mmHg 52%
13:00 +10°C° 0.1 mm 8 mps 745 mmHg 47%
14:00 +10°C° 0.1 mm 8 mps 745 mmHg 50%
15:00 +10°C° 0.1 mm 7 mps 745 mmHg 52%
16:00 +10°C° 0.1 mm 7 mps 745 mmHg 54%
17:00 +8°C° 0.4 mm 6 mps 745 mmHg 63%
18:00 +7°C° 0.4 mm 6 mps 745 mmHg 71%
19:00 +5°C° 0.4 mm 5 mps 745 mmHg 80%
20:00 +4°C° 0.2 mm 4 mps 745 mmHg 84%
21:00 +3°C° 0.2 mm 3 mps 746 mmHg 88%
22:00 +2°C° 0.2 mm 3 mps 746 mmHg 92%
23:00 +2°C° 0 mm 3 mps 746 mmHg 93%

Tomorrow, 7 May, Friday

Time Temperature Precipitation Wind Pressure Humidity
00:00 +1°C° 0 mm 3 mps 746 mmHg 93%
01:00 +1°C° 0 mm 3 mps 746 mmHg 93%
02:00 +2°C° 0 mm 2 mps 746 mmHg 93%
03:00 +2°C° 0 mm 2 mps 746 mmHg 92%
04:00 +2°C° 0 mm 2 mps 745 mmHg 92%
05:00 +4°C° 0 mm 2 mps 745 mmHg 88%
06:00 +5°C° 0 mm 2 mps 745 mmHg 84%
07:00 +6°C° 0 mm 2 mps 745 mmHg 80%
08:00 +7°C° 0.1 mm 2 mps 745 mmHg 77%
09:00 +7°C° 0.1 mm 2 mps 745 mmHg 74%
10:00 +8°C° 0.1 mm 2 mps 745 mmHg 72%
11:00 +7°C° 0.3 mm 2 mps 745 mmHg 73%
12:00 +7°C° 0.3 mm 2 mps 745 mmHg 74%
13:00 +7°C° 0.3 mm 2 mps 745 mmHg 75%
14:00 +7°C° 0.9 mm 2 mps 745 mmHg 80%
15:00 +5°C° 0.9 mm 3 mps 745 mmHg 84%
16:00 +5°C° 0.9 mm 3 mps 745 mmHg 88%
17:00 +4°C° 0.2 mm 3 mps 746 mmHg 88%
18:00 +4°C° 0.2 mm 3 mps 746 mmHg 89%
19:00 +4°C° 0.2 mm 3 mps 746 mmHg 89%
20:00 +3°C° 0 mm 3 mps 747 mmHg 91%
21:00 +3°C° 0 mm 3 mps 747 mmHg 93%
22:00 +2°C° 0 mm 3 mps 748 mmHg 94%
23:00 +2°C° 0 mm 3 mps 748 mmHg 94%

Day after tomorrow, 8 May, Saturday

Time Temperature Precipitation Wind Pressure Humidity
00:00 0°C° 0 mm 4 mps 749 mmHg 95%
01:00 0°C° 0 mm 4 mps 749 mmHg 95%
02:00 +1°C° 0 mm 3 mps 750 mmHg 95%
03:00 0°C° 0 mm 3 mps 750 mmHg 95%
04:00 0°C° 0 mm 3 mps 751 mmHg 96%
05:00 +1°C° 0 mm 3 mps 751 mmHg 91%
06:00 +3°C° 0 mm 4 mps 752 mmHg 87%
07:00 +4°C° 0 mm 4 mps 752 mmHg 82%
08:00 +5°C° 0.1 mm 5 mps 752 mmHg 76%
09:00 +7°C° 0.1 mm 5 mps 752 mmHg 70%
10:00 +8°C° 0.1 mm 6 mps 752 mmHg 63%
11:00 +8°C° 0.4 mm 5 mps 753 mmHg 66%
12:00 +8°C° 0.4 mm 5 mps 753 mmHg 68%
13:00 +8°C° 0.4 mm 5 mps 753 mmHg 71%
14:00 +8°C° 0.3 mm 5 mps 753 mmHg 70%
15:00 +8°C° 0.3 mm 5 mps 754 mmHg 69%
16:00 +8°C° 0.3 mm 5 mps 754 mmHg 68%
17:00 +7°C° 0.2 mm 4 mps 754 mmHg 74%
18:00 +7°C° 0.2 mm 3 mps 755 mmHg 81%
19:00 +5°C° 0.2 mm 2 mps 755 mmHg 87%
20:00 +4°C° 0 mm 2 mps 755 mmHg 88%
21:00 +3°C° 0 mm 2 mps 755 mmHg 89%
22:00 +3°C° 0 mm 2 mps 756 mmHg 90%
23:00 +2°C° 0 mm 2 mps 756 mmHg 89%

9 May, Sunday

Time Temperature Precipitation Wind Pressure Humidity
00:00 +2°C° 0 mm 2 mps 756 mmHg 87%
01:00 +2°C° 0 mm 2 mps 756 mmHg 86%
02:00 +2°C° 0 mm 2 mps 756 mmHg 87%
03:00 +2°C° 0 mm 2 mps 756 mmHg 87%
04:00 +1°C° 0 mm 3 mps 756 mmHg 88%
05:00 +3°C° 0 mm 3 mps 756 mmHg 83%
06:00 +5°C° 0 mm 4 mps 756 mmHg 77%
07:00 +7°C° 0 mm 5 mps 756 mmHg 72%
08:00 +9°C° 0 mm 5 mps 756 mmHg 66%
09:00 +10°C° 0 mm 6 mps 755 mmHg 60%
10:00 +12°C° 0 mm 7 mps 755 mmHg 54%
11:00 +13°C° 0 mm 6 mps 755 mmHg 57%
12:00 +13°C° 0 mm 6 mps 754 mmHg 59%
13:00 +13°C° 0 mm 6 mps 754 mmHg 61%
14:00 +15°C° 0 mm 6 mps 754 mmHg 61%
15:00 +16°C° 0 mm 6 mps 754 mmHg 61%
16:00 +17°C° 0 mm 6 mps 754 mmHg 60%
17:00 +15°C° 0 mm 5 mps 754 mmHg 65%
18:00 +14°C° 0 mm 5 mps 753 mmHg 69%
19:00 +13°C° 0 mm 4 mps 753 mmHg 73%
20:00 +12°C° 0 mm 5 mps 754 mmHg 73%
21:00 +12°C° 0 mm 5 mps 754 mmHg 73%
22:00 +10°C° 0 mm 5 mps 754 mmHg 74%
23:00 +10°C° 0 mm 5 mps 754 mmHg 76%

10 May, Monday

Time Temperature Precipitation Wind Pressure Humidity
00:00 +10°C° 0 mm 4 mps 754 mmHg 79%
01:00 +8°C° 0 mm 4 mps 754 mmHg 81%
02:00 +8°C° 0 mm 4 mps 754 mmHg 83%
03:00 +8°C° 0 mm 4 mps 754 mmHg 85%
04:00 +7°C° 0 mm 4 mps 754 mmHg 86%
05:00 +9°C° 0 mm 5 mps 754 mmHg 81%
06:00 +10°C° 0 mm 5 mps 754 mmHg 76%
07:00 +13°C° 0 mm 6 mps 754 mmHg 71%
08:00 +14°C° 0 mm 6 mps 754 mmHg 66%
09:00 +16°C° 0 mm 6 mps 754 mmHg 60%
10:00 +19°C° 0 mm 6 mps 754 mmHg 55%
11:00 +20°C° 0 mm 6 mps 754 mmHg 54%
12:00 +20°C° 0 mm 6 mps 753 mmHg 54%
13:00 +21°C° 0 mm 7 mps 753 mmHg 53%
14:00 +21°C° 0 mm 6 mps 753 mmHg 56%
15:00 +21°C° 0 mm 6 mps 753 mmHg 58%
16:00 +21°C° 0 mm 6 mps 753 mmHg 61%
17:00 +20°C° 0 mm 5 mps 753 mmHg 67%
18:00 +18°C° 0 mm 4 mps 753 mmHg 73%
19:00 +17°C° 0 mm 3 mps 753 mmHg 79%
20:00 +15°C° 0 mm 4 mps 753 mmHg 80%
21:00 +15°C° 0 mm 4 mps 753 mmHg 80%
22:00 +14°C° 0 mm 5 mps 753 mmHg 81%
23:00 +13°C° 0 mm 5 mps 752 mmHg 82%

11 May, Tuesday

Time Temperature Precipitation Wind Pressure Humidity
00:00 +13°C° 0 mm 5 mps 752 mmHg 84%
01:00 +12°C° 0 mm 5 mps 752 mmHg 85%
02:00 +12°C° 0 mm 5 mps 752 mmHg 87%
03:00 +12°C° 0 mm 5 mps 751 mmHg 88%
04:00 +10°C° 0 mm 5 mps 751 mmHg 89%
05:00 +11°C° 0 mm 6 mps 751 mmHg 84%
06:00 +14°C° 0 mm 6 mps 751 mmHg 79%
07:00 +15°C° 0 mm 6 mps 751 mmHg 74%
08:00 +16°C° 0 mm 7 mps 751 mmHg 70%
09:00 +18°C° 0 mm 7 mps 751 mmHg 66%
10:00 +20°C° 0 mm 8 mps 750 mmHg 62%
11:00 +21°C° 0 mm 8 mps 750 mmHg 61%
12:00 +22°C° 0 mm 8 mps 750 mmHg 60%
13:00 +23°C° 0 mm 8 mps 750 mmHg 59%
14:00 +23°C° 0 mm 7 mps 750 mmHg 61%
15:00 +23°C° 0 mm 7 mps 749 mmHg 62%
16:00 +23°C° 0 mm 7 mps 749 mmHg 64%
17:00 +22°C° 0 mm 7 mps 749 mmHg 67%
18:00 +21°C° 0 mm 7 mps 749 mmHg 71%
19:00 +18°C° 0 mm 7 mps 749 mmHg 74%
20:00 +18°C° 0 mm 7 mps 749 mmHg 73%
21:00 +17°C° 0 mm 7 mps 749 mmHg 73%
22:00 +16°C° 0 mm 7 mps 749 mmHg 72%
23:00 +16°C° 0 mm 7 mps 750 mmHg 72%
Show more